Vertical_Velocity
-0 0 1 -0 1 0 1 0 -0 2 1 1 -0 0 0 -0 -1 0 1 0 -1 -2 -0 -1 -1 -1 -1 -1 -1 -1 0 0 -0
2 3 2 0 -1 -1 -0 -1 -2 1 0 0 0 1 2 -2 -1 -0 0 -0 1 1 -1 -1 -1 -1 -2 -2 -1 -1 -1 -1 -0
-2 -1 -1 1 1 0 -1 -0 -1 -1 -3 -0 -1 -0 -1 1 1 -1 -1 -1 1 1 -0 0 -0 -1 -1 -1 -1 -1 -2 -1 -1
-2 -2 -2 1 -1 -1 -0 -1 -1 -1 0 -0 -1 -0 -0 -4 -2 0 -0 -1 -2 -1 -0 -1 -1 -0 -1 0 -1 -1 -0 -2 -2
-3 -4 -1 -2 -0 0 0 0 -0 1 -1 0 2 2 1 1 -0 -1 -2 -4 2 -0 -1 -1 -2 -3 -2 -1 0 -1 -1 0 -0
1 -1 -1 -1 -1 -0 0 -0 0 0 -2 -1 -1 -0 -2 1 3 0 2 2 0 -1 -0 0 -1 -1 -3 -2 -2 -0 -0 -1 0
1 -1 2 -2 1 1 -1 0 0 1 -2 -3 -1 -1 -1 -3 -3 -2 1 5 1 1 1 1 1 -0 -1 -2 -3 -1 -0 -0 -0
-1 1 -1 1 -2 0 -1 -0 -1 1 -1 0 2 -4 -1 0 2 -4 6 -2 8 -1 2 2 1 1 0 -1 -1 -3 -1 -1 -1
-2 -1 0 -0 0 -0 -0 -0 -1 -1 -1 -1 -2 -0 -2 0 -2 -1 0 -0 -2 4 1 4 4 2 1 0 0 -0 -2 -1 -1
-0 -1 -2 -2 -1 -2 -1 -1 -0 1 0 -0 -2 -1 -2 -0 -1 -2 -3 -1 -2 1 -3 -4 2 3 2 1 -1 0 0 -0 -1
-2 -2 -0 -1 -1 -1 -1 -1 -2 -1 -1 1 2 -0 0 1 -1 2 1 2 1 3 7 -0 -2 -0 3 1 1 -1 1 0 0
-2 -1 -2 -1 -0 -0 -1 -1 -1 -1 -2 -0 -1 -1 -0 -0 -0 -1 2 3 -3 -3 5 6 3 1 0 1 3 -1 0 1 0
-1 -1 -2 -2 -2 -2 -2 -3 -1 -1 -3 -3 -0 -1 -1 -1 -1 -0 -1 3 -0 -5 -3 6 4 1 4 1 1 2 -2 2 1
-0 -1 -1 -2 -1 -2 -1 -1 -2 -1 -1 -3 -4 -3 -3 -4 -3 -0 -0 -2 4 6 1 -1 5 4 2 2 -0 1 3 -0 3
-2 -2 -2 -0 0 -1 -1 1 -0 -3 -5 -2 -2 -1 -2 -3 -2 -4 -4 1 1 3 3 3 -4 6 8 7 6 3 3 2 2
-0 -1 -2 -2 -1 -1 -1 -1 -0 -0 -3 -4 -0 -1 1 -1 -3 -3 -3 -1 -1 -4 4 3 0 4 16 3 -2 3 0 2 1
-0 -1 -1 -0 0 -1 -1 -1 1 -0 -2 -5 -3 -4 7 -0 -4 1 3 -1 -3 -3 12 9 7 1 0 15 6 2 5 1 1
-1 -1 -2 -2 -2 -1 -2 -2 -2 -1 -1 -5 -8 -12 -6 -6 -0 5 -4 1 -7 3 -13 4 -1 7 41 16 -5 -5 -6 35 25
-1 -0 0 -0 -0 -0 -1 -2 -2 -3 -2 2 -1 -4 -9 -12 -13 14 2 2 1 -8 -5 56 66 16 156 17 8 5 12 -1 2
-1 -2 -1 -1 -1 -2 -1 -0 -2 -2 -2 -3 -0 -1 -2 -2 -8 -2 7 2 -9 -5 -8 -10 3 -2 -4 110 46 8 -12 -9 -12
Height
3160 3159 3159 3158 3158 3157 3155 3154 3154 3153 3152 3151 3151 3151 3150 3149 3149 3149 3149 3148 3147 3146 3145 3145 3145 3145 3145 3145 3145 3146 3146 3146 3147
3157 3156 3156 3155 3154 3154 3153 3153 3151 3151 3149 3149 3148 3147 3147 3146 3146 3146 3146 3146 3145 3145 3144 3143 3142 3142 3142 3143 3143 3143 3143 3144 3145
3154 3154 3153 3152 3151 3151 3150 3149 3149 3148 3147 3146 3145 3144 3144 3143 3143 3143 3143 3143 3142 3142 3142 3141 3140 3140 3140 3140 3140 3141 3141 3141 3142
3150 3150 3149 3149 3147 3146 3146 3145 3145 3144 3143 3143 3142 3141 3141 3140 3140 3140 3139 3139 3139 3139 3138 3138 3137 3137 3137 3137 3137 3137 3138 3139 3139
3145 3144 3144 3143 3142 3140 3139 3139 3138 3138 3138 3137 3137 3136 3136 3135 3135 3136 3136 3135 3135 3135 3135 3135 3134 3134 3134 3134 3134 3134 3134 3135 3136
3141 3139 3138 3137 3136 3135 3134 3133 3132 3132 3132 3131 3131 3130 3130 3130 3130 3130 3131 3131 3131 3130 3131 3130 3131 3130 3130 3130 3130 3130 3131 3131 3132
3135 3133 3133 3130 3130 3129 3127 3127 3126 3125 3125 3124 3124 3124 3124 3123 3123 3124 3125 3126 3125 3125 3125 3126 3126 3126 3126 3126 3126 3127 3127 3127 3128
3129 3127 3126 3125 3123 3122 3121 3120 3119 3118 3117 3117 3118 3117 3116 3117 3116 3116 3118 3118 3120 3119 3119 3119 3120 3121 3121 3121 3121 3122 3123 3123 3123
3123 3122 3120 3118 3116 3115 3114 3112 3112 3111 3110 3110 3110 3110 3109 3109 3109 3109 3109 3110 3111 3112 3112 3113 3113 3114 3115 3115 3116 3116 3117 3118 3119
3118 3116 3115 3113 3111 3109 3107 3106 3104 3103 3103 3102 3102 3101 3101 3101 3101 3101 3100 3101 3103 3104 3105 3105 3106 3106 3107 3109 3110 3111 3111 3113 3113
3114 3111 3109 3106 3105 3103 3101 3099 3098 3097 3096 3096 3096 3094 3093 3092 3092 3092 3092 3091 3091 3094 3095 3096 3098 3099 3099 3100 3102 3104 3105 3106 3107
3108 3106 3104 3102 3100 3097 3095 3094 3092 3090 3089 3088 3087 3086 3085 3084 3083 3081 3081 3081 3081 3082 3084 3086 3087 3090 3091 3091 3093 3095 3097 3099 3100
3103 3100 3099 3097 3095 3092 3090 3088 3086 3084 3082 3080 3079 3077 3076 3074 3072 3071 3070 3069 3069 3070 3072 3074 3076 3078 3081 3083 3084 3085 3088 3090 3092
3098 3096 3094 3092 3089 3086 3084 3082 3079 3077 3075 3073 3071 3069 3067 3065 3063 3062 3059 3058 3057 3058 3059 3061 3063 3066 3070 3072 3074 3076 3078 3081 3083
3095 3092 3090 3087 3084 3081 3079 3077 3075 3071 3068 3067 3064 3062 3059 3055 3053 3049 3047 3045 3043 3043 3044 3047 3049 3054 3058 3062 3064 3065 3068 3070 3073
3090 3087 3084 3082 3079 3077 3074 3072 3071 3068 3062 3059 3056 3052 3049 3045 3041 3038 3034 3033 3032 3030 3030 3033 3037 3041 3046 3049 3053 3056 3057 3059 3063
3085 3082 3080 3077 3075 3072 3068 3066 3065 3062 3056 3051 3047 3042 3042 3037 3035 3031 3027 3023 3019 3018 3019 3021 3027 3031 3034 3038 3040 3044 3046 3048 3052
3080 3078 3076 3073 3070 3068 3066 3063 3059 3057 3054 3048 3041 3034 3030 3025 3029 3026 3020 3014 3012 3013 3010 3010 3011 3017 3023 3026 3026 3031 3034 3034 3038
3076 3074 3071 3069 3066 3064 3061 3058 3055 3051 3048 3046 3041 3035 3028 3020 3016 3022 3017 3010 3005 3006 3003 2999 2995 3007 2992 3010 3013 3021 3027 3027 3025
3073 3070 3068 3065 3062 3059 3056 3053 3049 3045 3041 3037 3035 3033 3028 3021 3014 3011 3014 3008 3004 3004 3001 2999 3001 3002 2994 2989 3001 3013 3016 3016 3017